Location: Bu�n Treun
(12.1333°N, 108.3167°E)
Time: 00:31:20
(UTC+00:00)

MetOp-A - Pass Details

Date: 13 July 2020
Orbit: 819 x 821 km, 98.5° (Epoch: 03 August)

Event Time Altitude Azimuth Distance (km) Brightness Sun altitude
Exits shadow 12:58:24 53° 94° (E) 999 4.2 -23.3°
Maximum altitude 12:58:49 54° 76° (ENE) 984 4.2 -23.4°
Drops below altitude 10° 13:04:00 10° 0° (N) 2,411 6.9 -24.5°
Sets 13:06:23 0° 356° (N) 3,343 7.8 -25.0°
